This demonstration page uses our WeatherBlox Daily Observations layout. Learn more.

Left ArrowRight Arrow

53.62937, 11.41316

Hourly Observations for January 5, 2022

Temp ( °F °C ) Dew Point ( °F °C ) Humidity (%) Winds ( mph kmh ) Pressure ( in mb ) Visibility ( mi km ) Precip ( " mm )
12:20 am 00:20 Mostly Clear 36 2 32 0 87 87 SW 6 9 29.36 994 30 48 N/A
12:50 am 00:50 Mostly Clear 36 2 32 0 87 87 VRB 5 7 29.36 994 30 48 N/A
1:20 am 01:20 Mostly Cloudy 36 2 34 1 93 93 SW 7 11 29.36 994 30 48 N/A
1:50 am 01:50 Mostly Cloudy 36 2 32 0 87 87 WSW 8 13 29.33 993 30 48 N/A
2:20 am 02:20 Mostly Clear 36 2 32 0 87 87 SW 6 9 29.33 993 30 48 N/A
2:50 am 02:50 Mostly Clear 36 2 32 0 87 87 VRB 7 11 29.33 993 30 48 N/A
3:20 am 03:20 Mostly Clear 36 2 32 0 87 87 VRB 6 9 29.33 993 30 48 N/A
3:50 am 03:50 Mostly Clear 36 2 32 0 87 87 SSW 7 11 29.33 993 30 48 N/A
4:20 am 04:20 Mostly Clear 36 2 32 0 87 87 SSW 7 11 29.33 993 30 48 N/A
4:50 am 04:50 Mostly Clear 36 2 32 0 87 87 SSW 7 11 29.30 992 30 48 N/A
5:20 am 05:20 Mostly Clear 36 2 32 0 87 87 VRB 7 11 29.30 992 30 48 N/A
6:20 am 06:20 Mostly Cloudy with Light Rain 36 2 32 0 87 87 SW 8 13 29.30 992 30 48 N/A
6:50 am 06:50 Cloudy 37 3 32 0 81 81 SW 9 15 29.30 992 30 48 N/A
7:20 am 07:20 Cloudy 37 3 32 0 81 81 SW 12 19 29.30 992 30 48 N/A
7:50 am 07:50 Mostly Cloudy 37 3 32 0 81 81 VRB 10 17 29.30 992 30 48 N/A
8:20 am 08:20 Mostly Cloudy 37 3 34 1 87 87 VRB 9 15 29.33 993 30 48 N/A
8:50 am 08:50 Mostly Cloudy 37 3 34 1 87 87 SW 13 20 29.33 993 30 48 N/A
9:20 am 09:20 Mostly Cloudy 37 3 32 0 81 81 SW 10 17 29.30 992 30 48 N/A
9:50 am 09:50 Mostly Cloudy with Light Rain 37 3 34 1 87 87 SW 9 15 29.33 993 30 48 N/A
10:50 am 10:50 Mostly Cloudy with Light Rain 37 3 34 1 87 87 VRB 10 17 29.33 993 30 48 N/A
12:20 pm 12:20 Mostly Cloudy 39 4 36 2 87 87 VRB 8 13 29.33 993 30 48 N/A
12:50 pm 12:50 Mostly Cloudy 39 4 36 2 87 87 SW 10 17 29.33 993 30 48 N/A
1:20 pm 13:20 Mostly Cloudy with Light Rain 39 4 36 2 87 87 VRB 12 19 29.33 993 30 48 N/A
1:50 pm 13:50 Mostly Cloudy with Light Rain 39 4 36 2 87 87 WSW 10 17 29.33 993 30 48 N/A
2:20 pm 14:20 Mostly Cloudy with Light Rain 39 4 36 2 87 87 WSW 13 20 29.33 993 30 48 N/A
2:50 pm 14:50 Mostly Cloudy with Light Rain 39 4 36 2 87 87 WSW 15 24 29.33 993 30 48 N/A
3:20 pm 15:20 Mostly Cloudy with Light Rain 39 4 37 3 93 93 WSW 12 19 29.33 993 30 48 N/A
3:50 pm 15:50 Mostly Cloudy with Light Rain 39 4 36 2 87 87 WSW 14 22 29.36 994 30 48 N/A
4:20 pm 16:20 Mostly Cloudy 41 5 36 2 81 81 W 14 22 29.35 994 30 48 N/A
4:50 pm 16:50 Mostly Cloudy 41 5 36 2 81 81 W 14 22 29.38 995 30 48 N/A
5:20 pm 17:20 Mostly Cloudy 41 5 36 2 81 81 W 13 20 29.41 996 30 48 N/A
5:50 pm 17:50 Mostly Cloudy 39 4 36 2 87 87 W 13 20 29.44 997 30 48 N/A
6:20 pm 18:20 Mostly Cloudy with Light Rain 41 5 36 2 81 81 W 12 19 29.44 997 30 48 N/A
6:50 pm 18:50 Mostly Cloudy 39 4 36 2 87 87 WNW 13 20 29.47 998 30 48 N/A
7:20 pm 19:20 Mostly Cloudy 39 4 34 1 81 81 W 14 22 29.47 998 30 48 N/A
7:50 pm 19:50 Mostly Cloudy 39 4 32 0 75 75 WNW 14 22 29.50 999 30 48 N/A
8:20 pm 20:20 Partly Cloudy 37 3 32 0 81 81 W 10 17 29.53 1000 30 48 N/A
8:50 pm 20:50 Mostly Clear 37 3 34 1 87 87 W 9 15 29.53 1000 30 48 N/A
9:20 pm 21:20 Mostly Cloudy 37 3 34 1 87 87 WNW 10 17 29.56 1001 30 48 N/A
9:50 pm 21:50 Mostly Cloudy 37 3 34 1 87 87 NW 12 19 29.59 1002 30 48 N/A
10:20 pm 22:20 Mostly Cloudy 37 3 30 -1 75 75 NNW 13 20 29.62 1003 30 48 N/A
10:50 pm 22:50 Mostly Clear 36 2 30 -1 81 81 WNW 8 13 29.62 1003 30 48 N/A
11:20 pm 23:20 Mostly Cloudy 36 2 28 -2 75 75 WNW 9 15 29.65 1004 30 48 N/A
11:50 pm 23:50 Mostly Cloudy 36 2 28 -2 75 75 WNW 13 20 29.68 1005 30 48 N/A

Powered by AerisWeather